Time,TemperatureF,DewpointF,PressureIn,WindDirection,WindDirectionDegrees,WindSpeedMPH,WindSpeedGustMPH,Humidity,HourlyPrecipIn,Conditions,Clouds,dailyrainin,SoftwareType,DateUTC
2013-01-16 00:00:00,23.7,18.1,31.00,SSE,157,2.0,2.0,79,0.00,,,0.00,meteohub,2013-01-16 08:00:00,
2013-01-16 00:05:00,23.7,18.1,31.00,SE,145,2.0,2.0,79,0.00,,,0.00,meteohub,2013-01-16 08:05:00,
2013-01-16 00:10:00,24.1,18.1,31.00,SSE,148,2.0,3.0,78,0.00,,,0.00,meteohub,2013-01-16 08:10:00,
2013-01-16 00:15:00,24.1,18.0,31.00,SSE,155,3.0,4.0,77,0.00,,,0.00,meteohub,2013-01-16 08:15:00,
2013-01-16 00:20:00,24.1,18.0,31.00,SSE,163,2.0,4.0,77,0.00,,,0.00,meteohub,2013-01-16 08:20:00,
2013-01-16 00:25:00,24.3,17.8,31.00,South,171,3.0,4.0,76,0.00,,,0.00,meteohub,2013-01-16 08:25:00,
2013-01-16 00:30:00,24.1,18.0,31.00,SSE,160,3.0,4.0,77,0.00,,,0.00,meteohub,2013-01-16 08:30:00,
2013-01-16 00:36:00,23.7,17.6,31.00,SSE,166,3.0,4.0,77,0.00,,,0.00,meteohub,2013-01-16 08:36:00,
2013-01-16 00:41:00,23.5,17.8,31.00,SSE,157,2.0,4.0,78,0.00,,,0.00,meteohub,2013-01-16 08:41:00,
2013-01-16 00:46:00,23.9,17.8,31.00,SSE,152,2.0,4.0,77,0.00,,,0.00,meteohub,2013-01-16 08:46:00,
2013-01-16 00:51:00,24.1,18.0,31.00,SSE,148,2.0,4.0,77,0.00,,,0.00,meteohub,2013-01-16 08:51:00,
2013-01-16 00:56:00,24.1,17.6,31.00,SSE,163,2.0,3.0,76,0.00,,,0.00,meteohub,2013-01-16 08:56:00,
2013-01-16 01:01:00,23.9,17.4,31.00,South,175,4.0,4.0,76,0.00,,,0.00,meteohub,2013-01-16 09:01:00,
2013-01-16 01:06:00,23.5,17.8,31.00,SSE,168,3.0,4.0,78,0.00,,,0.00,meteohub,2013-01-16 09:06:00,
2013-01-16 01:11:00,24.1,18.0,31.00,South,180,3.0,4.0,77,0.00,,,0.00,meteohub,2013-01-16 09:11:00,
2013-01-16 01:16:00,24.1,18.0,31.00,South,191,2.0,4.0,77,0.00,,,0.00,meteohub,2013-01-16 09:16:00,
2013-01-16 01:21:00,24.3,18.1,31.00,South,169,2.0,4.0,77,0.00,,,0.00,meteohub,2013-01-16 09:21:00,
2013-01-16 01:26:00,24.1,17.6,31.00,South,188,2.0,4.0,76,0.00,,,0.00,meteohub,2013-01-16 09:26:00,
2013-01-16 01:31:00,23.5,17.4,31.00,South,169,4.0,4.0,77,0.00,,,0.00,meteohub,2013-01-16 09:31:00,
2013-01-16 01:36:00,23.2,17.4,31.00,SSW,207,2.0,4.0,78,0.00,,,0.00,meteohub,2013-01-16 09:36:00,
2013-01-16 01:41:00,23.0,17.2,31.00,SSW,203,1.0,4.0,78,0.00,,,0.00,meteohub,2013-01-16 09:41:00,
2013-01-16 01:46:00,23.0,17.4,31.00,SSE,160,2.0,4.0,79,0.00,,,0.00,meteohub,2013-01-16 09:46:00,
2013-01-16 01:51:00,22.6,17.1,31.00,SSE,153,3.0,3.0,79,0.00,,,0.00,meteohub,2013-01-16 09:51:00,
2013-01-16 01:56:00,22.3,16.7,31.01,SSE,153,3.0,3.0,79,0.00,,,0.00,meteohub,2013-01-16 09:56:00,
2013-01-16 02:01:00,22.1,16.9,31.01,SSE,154,2.0,3.0,80,0.00,,,0.00,meteohub,2013-01-16 10:01:00,
2013-01-16 02:06:00,22.1,16.9,31.01,SSE,153,1.0,4.0,80,0.00,,,0.00,meteohub,2013-01-16 10:06:00,
2013-01-16 02:11:00,21.7,16.5,31.01,SSE,162,1.0,4.0,80,0.00,,,0.00,meteohub,2013-01-16 10:11:00,
2013-01-16 02:16:00,21.6,16.7,31.01,SSE,164,2.0,4.0,81,0.00,,,0.00,meteohub,2013-01-16 10:16:00,
2013-01-16 02:21:00,21.6,16.7,31.01,SSE,160,2.0,3.0,81,0.00,,,0.00,meteohub,2013-01-16 10:21:00,
2013-01-16 02:26:00,21.7,16.5,31.01,South,190,1.0,3.0,80,0.00,,,0.00,meteohub,2013-01-16 10:26:00,
2013-01-16 02:31:00,21.6,16.7,31.01,SSE,153,2.0,4.0,81,0.00,,,0.00,meteohub,2013-01-16 10:31:00,
2013-01-16 02:36:00,21.7,16.5,31.01,SE,146,1.0,4.0,80,0.00,,,0.00,meteohub,2013-01-16 10:36:00,
2013-01-16 02:42:00,21.6,16.7,31.01,SE,146,1.0,4.0,81,0.00,,,0.00,meteohub,2013-01-16 10:42:00,
2013-01-16 02:47:00,21.4,16.2,31.01,SSE,159,1.0,3.0,80,0.00,,,0.00,meteohub,2013-01-16 10:47:00,
2013-01-16 02:52:00,20.8,16.0,31.01,ESE,113,1.0,3.0,81,0.00,,,0.00,meteohub,2013-01-16 10:52:00,
2013-01-16 02:57:00,20.7,15.8,31.01,SSE,168,1.0,3.0,81,0.00,,,0.00,meteohub,2013-01-16 10:57:00,
2013-01-16 03:02:00,20.1,15.4,31.01,SSE,161,2.0,3.0,82,0.00,,,0.00,meteohub,2013-01-16 11:02:00,
2013-01-16 03:07:00,20.1,15.8,31.01,South,178,2.0,3.0,83,0.00,,,0.00,meteohub,2013-01-16 11:07:00,
2013-01-16 03:12:00,20.3,16.0,31.01,SSE,165,2.0,3.0,83,0.00,,,0.00,meteohub,2013-01-16 11:12:00,
2013-01-16 03:17:00,20.8,16.2,31.00,South,169,3.0,4.0,82,0.00,,,0.00,meteohub,2013-01-16 11:17:00,
2013-01-16 03:22:00,21.6,16.7,31.00,SSE,160,3.0,4.0,81,0.00,,,0.00,meteohub,2013-01-16 11:22:00,
2013-01-16 03:27:00,21.7,16.5,31.01,South,182,3.0,4.0,80,0.00,,,0.00,meteohub,2013-01-16 11:27:00,
2013-01-16 03:32:00,21.7,16.2,31.01,SSE,160,3.0,4.0,79,0.00,,,0.00,meteohub,2013-01-16 11:32:00,
2013-01-16 03:37:00,21.7,16.2,31.00,SSE,168,4.0,4.0,79,0.00,,,0.00,meteohub,2013-01-16 11:37:00,
2013-01-16 03:42:00,21.4,16.2,31.01,SSE,157,3.0,4.0,80,0.00,,,0.00,meteohub,2013-01-16 11:42:00,
2013-01-16 03:47:00,21.0,15.8,31.00,South,173,4.0,4.0,80,0.00,,,0.00,meteohub,2013-01-16 11:47:00,
2013-01-16 03:52:00,20.7,15.8,31.00,South,176,4.0,5.0,81,0.00,,,0.00,meteohub,2013-01-16 11:52:00,
2013-01-16 03:57:00,20.7,15.8,31.00,South,173,4.0,5.0,81,0.00,,,0.00,meteohub,2013-01-16 11:57:00,
2013-01-16 04:02:00,20.5,15.6,31.00,SSE,168,2.0,5.0,81,0.00,,,0.00,meteohub,2013-01-16 12:02:00,
2013-01-16 04:07:00,20.1,15.3,31.00,SSE,167,2.0,5.0,81,0.00,,,0.00,meteohub,2013-01-16 12:07:00,
2013-01-16 04:12:00,19.8,14.9,31.00,South,173,4.0,5.0,81,0.00,,,0.00,meteohub,2013-01-16 12:12:00,
2013-01-16 04:17:00,19.4,14.7,31.00,SSE,159,3.0,5.0,82,0.00,,,0.00,meteohub,2013-01-16 12:17:00,
2013-01-16 04:22:00,19.2,14.9,31.00,SSE,163,3.0,5.0,83,0.00,,,0.00,meteohub,2013-01-16 12:22:00,
2013-01-16 04:27:00,19.2,14.9,31.00,SSE,165,2.0,5.0,83,0.00,,,0.00,meteohub,2013-01-16 12:27:00,
2013-01-16 04:32:00,19.0,14.7,31.01,SSE,168,3.0,4.0,83,0.00,,,0.00,meteohub,2013-01-16 12:32:00,
2013-01-16 04:37:00,19.0,15.1,31.00,SSE,161,3.0,5.0,84,0.00,,,0.00,meteohub,2013-01-16 12:37:00,
2013-01-16 04:42:00,18.9,14.5,31.00,SSE,156,3.0,5.0,83,0.00,,,0.00,meteohub,2013-01-16 12:42:00,
2013-01-16 04:47:00,18.9,14.5,31.01,SSE,160,2.0,5.0,83,0.00,,,0.00,meteohub,2013-01-16 12:47:00,
2013-01-16 04:52:00,18.9,14.5,31.00,SSE,160,2.0,5.0,83,0.00,,,0.00,meteohub,2013-01-16 12:52:00,
2013-01-16 04:57:00,18.9,14.5,31.01,SSE,159,2.0,4.0,83,0.00,,,0.00,meteohub,2013-01-16 12:57:00,
2013-01-16 05:02:00,19.0,14.7,31.01,SSE,165,2.0,4.0,83,0.00,,,0.00,meteohub,2013-01-16 13:02:00,
2013-01-16 05:07:00,19.0,15.1,31.00,SSE,160,2.0,4.0,84,0.00,,,0.00,meteohub,2013-01-16 13:07:00,
2013-01-16 05:12:00,18.9,14.5,31.00,SSE,157,2.0,4.0,83,0.00,,,0.00,meteohub,2013-01-16 13:12:00,
2013-01-16 05:17:00,18.9,14.4,31.00,South,171,2.0,4.0,82,0.00,,,0.00,meteohub,2013-01-16 13:17:00,
2013-01-16 05:22:00,18.9,14.5,31.00,SSE,168,3.0,4.0,83,0.00,,,0.00,meteohub,2013-01-16 13:22:00,
2013-01-16 05:27:00,18.9,14.5,31.00,SSE,161,3.0,4.0,83,0.00,,,0.00,meteohub,2013-01-16 13:27:00,
2013-01-16 05:32:00,18.9,14.9,31.00,SSE,161,3.0,4.0,84,0.00,,,0.00,meteohub,2013-01-16 13:32:00,
2013-01-16 05:37:00,19.0,14.7,31.00,South,171,3.0,4.0,83,0.00,,,0.00,meteohub,2013-01-16 13:37:00,
2013-01-16 05:42:00,18.9,14.4,31.00,South,170,2.0,4.0,82,0.00,,,0.00,meteohub,2013-01-16 13:42:00,
2013-01-16 05:47:00,18.9,14.5,31.00,SSE,153,2.0,4.0,83,0.00,,,0.00,meteohub,2013-01-16 13:47:00,
2013-01-16 05:52:00,18.3,13.8,31.00,SSE,168,3.0,4.0,82,0.00,,,0.00,meteohub,2013-01-16 13:52:00,
2013-01-16 05:57:00,18.1,14.2,31.00,SSE,164,3.0,4.0,84,0.00,,,0.00,meteohub,2013-01-16 13:57:00,
2013-01-16 06:02:00,18.1,13.8,31.00,South,174,3.0,4.0,83,0.00,,,0.00,meteohub,2013-01-16 14:02:00,
2013-01-16 06:07:00,17.8,13.5,31.00,SSW,192,2.0,4.0,83,0.00,,,0.00,meteohub,2013-01-16 14:07:00,
2013-01-16 06:12:00,17.6,13.6,31.00,SSE,157,3.0,4.0,84,0.00,,,0.00,meteohub,2013-01-16 14:12:00,
2013-01-16 06:17:00,17.8,13.8,31.00,SSE,153,3.0,5.0,84,0.00,,,0.00,meteohub,2013-01-16 14:17:00,
2013-01-16 06:22:00,18.0,13.6,31.00,SSE,166,3.0,5.0,83,0.00,,,0.00,meteohub,2013-01-16 14:22:00,
2013-01-16 06:27:00,18.1,13.8,31.00,SSE,155,3.0,5.0,83,0.00,,,0.00,meteohub,2013-01-16 14:27:00,
2013-01-16 06:32:00,17.8,13.5,31.00,SSE,167,2.0,4.0,83,0.00,,,0.00,meteohub,2013-01-16 14:32:00,
2013-01-16 06:37:00,17.2,13.3,31.00,South,176,3.0,4.0,84,0.00,,,0.00,meteohub,2013-01-16 14:37:00,
2013-01-16 06:42:00,17.1,13.3,31.00,SSE,167,3.0,4.0,85,0.00,,,0.00,meteohub,2013-01-16 14:42:00,
2013-01-16 06:47:00,17.4,13.6,31.00,South,175,3.0,4.0,85,0.00,,,0.00,meteohub,2013-01-16 14:47:00,
2013-01-16 06:52:00,17.8,13.8,31.01,SSE,158,2.0,4.0,84,0.00,,,0.00,meteohub,2013-01-16 14:52:00,
2013-01-16 06:57:00,17.8,13.3,31.01,South,178,3.0,4.0,82,0.00,,,0.00,meteohub,2013-01-16 14:57:00,
2013-01-16 07:02:00,17.4,13.5,31.01,South,169,3.0,3.0,84,0.00,,,0.00,meteohub,2013-01-16 15:02:00,
2013-01-16 07:07:00,17.8,13.8,31.01,SSE,165,2.0,4.0,84,0.00,,,0.00,meteohub,2013-01-16 15:07:00,
2013-01-16 07:12:00,17.6,13.6,31.01,SSE,155,1.0,4.0,84,0.00,,,0.00,meteohub,2013-01-16 15:12:00,
2013-01-16 07:17:00,17.2,12.9,31.01,South,172,3.0,4.0,83,0.00,,,0.00,meteohub,2013-01-16 15:17:00,
2013-01-16 07:22:00,17.1,13.1,31.01,SSE,160,3.0,4.0,84,0.00,,,0.00,meteohub,2013-01-16 15:22:00,
2013-01-16 07:27:00,17.2,13.3,31.01,SSE,160,3.0,5.0,84,0.00,,,0.00,meteohub,2013-01-16 15:27:00,
2013-01-16 07:32:00,17.4,13.6,31.01,SSE,163,2.0,5.0,85,0.00,,,0.00,meteohub,2013-01-16 15:32:00,
2013-01-16 07:37:00,18.1,13.8,31.01,SSE,166,3.0,5.0,83,0.00,,,0.00,meteohub,2013-01-16 15:37:00,
2013-01-16 07:42:00,18.3,14.0,31.01,SSE,168,4.0,5.0,83,0.00,,,0.00,meteohub,2013-01-16 15:42:00,
2013-01-16 07:47:00,18.5,14.0,31.01,SSE,162,3.0,5.0,82,0.00,,,0.00,meteohub,2013-01-16 15:47:00,
2013-01-16 07:52:00,18.3,13.8,31.01,SSE,148,4.0,5.0,82,0.00,,,0.00,meteohub,2013-01-16 15:52:00,
2013-01-16 07:57:00,18.3,13.8,31.01,SSE,167,4.0,5.0,82,0.00,,,0.00,meteohub,2013-01-16 15:57:00,
2013-01-16 08:02:00,18.7,13.8,31.01,South,176,4.0,4.0,81,0.00,,,0.00,meteohub,2013-01-16 16:02:00,
2013-01-16 08:07:00,19.0,14.2,31.02,SSE,165,2.0,5.0,81,0.00,,,0.00,meteohub,2013-01-16 16:07:00,
2013-01-16 08:12:00,19.4,14.2,31.01,SSE,155,2.0,5.0,80,0.00,,,0.00,meteohub,2013-01-16 16:12:00,
2013-01-16 08:17:00,19.6,14.2,31.02,South,182,3.0,5.0,79,0.00,,,0.00,meteohub,2013-01-16 16:17:00,
2013-01-16 08:22:00,19.8,14.0,31.02,SSE,153,1.0,5.0,78,0.00,,,0.00,meteohub,2013-01-16 16:22:00,
2013-01-16 08:27:00,19.8,14.0,31.02,SSE,168,2.0,4.0,78,0.00,,,0.00,meteohub,2013-01-16 16:27:00,
2013-01-16 08:32:00,20.5,14.4,31.02,South,186,4.0,4.0,77,0.00,,,0.00,meteohub,2013-01-16 16:32:00,
2013-01-16 08:37:00,21.0,14.7,31.02,South,186,2.0,4.0,76,0.00,,,0.00,meteohub,2013-01-16 16:37:00,
2013-01-16 08:42:00,21.7,14.7,31.02,SE,146,2.0,4.0,74,0.00,,,0.00,meteohub,2013-01-16 16:42:00,
2013-01-16 08:47:00,22.3,15.3,31.02,SSE,152,2.0,4.0,74,0.00,,,0.00,meteohub,2013-01-16 16:47:00,
2013-01-16 08:52:00,23.0,15.3,31.02,South,169,2.0,3.0,72,0.00,,,0.00,meteohub,2013-01-16 16:52:00,
2013-01-16 08:57:00,23.5,15.4,31.03,SSW,200,1.0,4.0,71,0.00,,,0.00,meteohub,2013-01-16 16:57:00,
2013-01-16 09:02:00,24.1,16.0,31.02,SSE,163,2.0,4.0,71,0.00,,,0.00,meteohub,2013-01-16 17:02:00,
2013-01-16 09:07:00,24.6,16.0,31.02,South,169,2.0,4.0,69,0.00,,,0.00,meteohub,2013-01-16 17:07:00,
2013-01-16 09:12:00,24.8,16.7,31.03,SSE,148,1.0,3.0,71,0.00,,,0.00,meteohub,2013-01-16 17:12:00,
2013-01-16 09:17:00,25.5,16.7,31.02,SSE,149,2.0,3.0,69,0.00,,,0.00,meteohub,2013-01-16 17:17:00,
2013-01-16 09:22:00,25.9,17.1,31.02,South,186,2.0,3.0,69,0.00,,,0.00,meteohub,2013-01-16 17:22:00,
2013-01-16 09:27:00,26.4,16.9,31.02,South,177,2.0,3.0,67,0.00,,,0.00,meteohub,2013-01-16 17:27:00,
2013-01-16 09:32:00,26.4,18.7,31.02,South,180,0.0,3.0,72,0.00,,,0.00,meteohub,2013-01-16 17:32:00,
2013-01-16 09:37:00,26.8,18.0,31.02,SE,127,0.0,3.0,69,0.00,,,0.00,meteohub,2013-01-16 17:37:00,
2013-01-16 09:42:00,28.0,18.5,31.02,South,177,1.0,3.0,67,0.00,,,0.00,meteohub,2013-01-16 17:42:00,
2013-01-16 09:47:00,29.5,18.5,31.02,SSE,148,1.0,3.0,63,0.00,,,0.00,meteohub,2013-01-16 17:47:00,
2013-01-16 09:52:00,30.4,18.5,31.02,SE,136,0.0,2.0,61,0.00,,,0.00,meteohub,2013-01-16 17:52:00,
2013-01-16 09:57:00,30.9,18.0,31.01,SE,144,0.0,2.0,58,0.00,,,0.00,meteohub,2013-01-16 17:57:00,
2013-01-16 10:02:00,32.2,19.0,31.01,SSE,157,0.0,1.0,58,0.00,,,0.00,meteohub,2013-01-16 18:02:00,
2013-01-16 10:07:00,33.3,18.9,31.01,ESE,107,1.0,1.0,55,0.00,,,0.00,meteohub,2013-01-16 18:07:00,
2013-01-16 10:12:00,34.3,19.4,31.00,SSW,202,0.0,2.0,54,0.00,,,0.00,meteohub,2013-01-16 18:12:00,
2013-01-16 10:17:00,35.8,20.3,31.00,SW,219,0.0,4.0,53,0.00,,,0.00,meteohub,2013-01-16 18:17:00,
2013-01-16 10:22:00,36.7,18.3,31.00,SSW,202,0.0,4.0,47,0.00,,,0.00,meteohub,2013-01-16 18:22:00,
2013-01-16 10:27:00,37.2,22.1,31.00,SSW,202,0.0,4.0,54,0.00,,,0.00,meteohub,2013-01-16 18:27:00,
2013-01-16 10:32:00,37.9,23.7,31.00,SSW,202,0.0,1.0,56,0.00,,,0.00,meteohub,2013-01-16 18:32:00,
2013-01-16 10:37:00,38.3,23.5,30.99,SSW,202,0.0,0.0,55,0.00,,,0.00,meteohub,2013-01-16 18:37:00,
2013-01-16 10:42:00,37.9,22.3,30.99,NW,323,1.0,0.0,53,0.00,,,0.00,meteohub,2013-01-16 18:42:00,
2013-01-16 10:47:00,37.2,23.0,30.99,NW,323,0.0,2.0,56,0.00,,,0.00,meteohub,2013-01-16 18:47:00,
2013-01-16 10:52:00,37.2,22.1,30.99,NW,323,1.0,2.0,54,0.00,,,0.00,meteohub,2013-01-16 18:52:00,
2013-01-16 10:57:00,37.0,24.4,30.98,NW,320,0.0,2.0,60,0.00,,,0.00,meteohub,2013-01-16 18:57:00,
2013-01-16 11:02:00,37.9,28.0,30.98,NW,320,0.0,2.0,67,0.00,,,0.00,meteohub,2013-01-16 19:02:00,
2013-01-16 11:07:00,39.4,25.3,30.97,NNE,17,0.0,2.0,57,0.00,,,0.00,meteohub,2013-01-16 19:07:00,
2013-01-16 11:12:00,40.5,23.7,30.97,NNE,17,0.0,1.0,51,0.00,,,0.00,meteohub,2013-01-16 19:12:00,
2013-01-16 11:17:00,40.8,24.1,30.97,WNW,284,0.0,1.0,51,0.00,,,0.00,meteohub,2013-01-16 19:17:00,
2013-01-16 11:22:00,41.2,21.4,30.96,WNW,284,0.0,1.0,45,0.00,,,0.00,meteohub,2013-01-16 19:22:00,
2013-01-16 11:27:00,41.9,20.5,30.96,WNW,284,0.0,1.0,42,0.00,,,0.00,meteohub,2013-01-16 19:27:00,
2013-01-16 11:32:00,42.6,25.3,30.95,WNW,284,0.0,0.0,50,0.00,,,0.00,meteohub,2013-01-16 19:32:00,
2013-01-16 11:37:00,43.3,21.7,30.95,SW,225,0.0,0.0,42,0.00,,,0.00,meteohub,2013-01-16 19:37:00,
2013-01-16 11:42:00,43.2,21.0,30.95,WSW,254,1.0,3.0,41,0.00,,,0.00,meteohub,2013-01-16 19:42:00,
2013-01-16 11:47:00,43.3,22.3,30.94,SW,226,0.0,3.0,43,0.00,,,0.00,meteohub,2013-01-16 19:47:00,
2013-01-16 11:52:00,43.2,21.6,30.94,NNW,340,4.0,4.0,42,0.00,,,0.00,meteohub,2013-01-16 19:52:00,
2013-01-16 11:57:00,42.1,20.7,30.94,NW,325,3.0,6.0,42,0.00,,,0.00,meteohub,2013-01-16 19:57:00,
2013-01-16 12:02:00,41.4,21.0,30.94,NNE,28,2.0,6.0,44,0.00,,,0.00,meteohub,2013-01-16 20:02:00,
2013-01-16 12:07:00,41.0,21.2,30.93,NE,35,4.0,6.0,45,0.00,,,0.00,meteohub,2013-01-16 20:07:00,
2013-01-16 12:12:00,41.0,21.7,30.93,NNW,329,6.0,6.0,46,0.00,,,0.00,meteohub,2013-01-16 20:12:00,
2013-01-16 12:17:00,41.2,21.4,30.93,NW,323,3.0,7.0,45,0.00,,,0.00,meteohub,2013-01-16 20:17:00,
2013-01-16 12:22:00,41.5,22.8,30.92,NW,322,0.0,9.0,47,0.00,,,0.00,meteohub,2013-01-16 20:22:00,
2013-01-16 12:27:00,41.7,20.3,30.92,NNW,347,3.0,9.0,42,0.00,,,0.00,meteohub,2013-01-16 20:27:00,
2013-01-16 12:32:00,41.7,21.9,30.92,NNE,28,1.0,5.0,45,0.00,,,0.00,meteohub,2013-01-16 20:32:00,
2013-01-16 12:37:00,41.7,19.8,30.92,NNE,28,0.0,3.0,41,0.00,,,0.00,meteohub,2013-01-16 20:37:00,
2013-01-16 12:42:00,41.9,21.6,30.92,NNW,334,1.0,3.0,44,0.00,,,0.00,meteohub,2013-01-16 20:42:00,
2013-01-16 12:47:00,42.1,17.1,30.91,NNE,30,2.0,3.0,36,0.00,,,0.00,meteohub,2013-01-16 20:47:00,
2013-01-16 12:52:00,42.4,17.4,30.91,NNE,24,4.0,5.0,36,0.00,,,0.00,meteohub,2013-01-16 20:52:00,
2013-01-16 12:57:00,42.4,18.7,30.91,NE,39,3.0,5.0,38,0.00,,,0.00,meteohub,2013-01-16 20:57:00,
2013-01-16 13:02:00,42.4,20.5,30.91,NE,44,0.0,6.0,41,0.00,,,0.00,meteohub,2013-01-16 21:02:00,
2013-01-16 13:07:00,42.8,16.3,30.91,NE,44,0.0,6.0,34,0.00,,,0.00,meteohub,2013-01-16 21:07:00,
2013-01-16 13:12:00,43.0,16.5,30.90,NNW,336,2.0,6.0,34,0.00,,,0.00,meteohub,2013-01-16 21:12:00,
2013-01-16 13:17:00,42.8,18.9,30.90,NNE,26,3.0,3.0,38,0.00,,,0.00,meteohub,2013-01-16 21:17:00,
2013-01-16 13:22:00,43.0,19.0,30.90,NE,34,7.0,7.0,38,0.00,,,0.00,meteohub,2013-01-16 21:22:00,
2013-01-16 13:27:00,42.6,22.3,30.90,NE,36,5.0,7.0,44,0.00,,,0.00,meteohub,2013-01-16 21:27:00,
2013-01-16 13:32:00,42.6,16.9,30.90,NNE,30,3.0,9.0,35,0.00,,,0.00,meteohub,2013-01-16 21:32:00,
2013-01-16 13:38:00,42.6,18.1,30.89,NE,43,3.0,9.0,37,0.00,,,0.00,meteohub,2013-01-16 21:38:00,
2013-01-16 13:43:00,43.0,18.5,30.89,NW,311,2.0,8.0,37,0.00,,,0.00,meteohub,2013-01-16 21:43:00,
2013-01-16 13:48:00,43.0,17.8,30.89,NNE,17,4.0,7.0,36,0.00,,,0.00,meteohub,2013-01-16 21:48:00,
2013-01-16 13:53:00,43.2,16.0,30.89,NNE,32,0.0,6.0,33,0.00,,,0.00,meteohub,2013-01-16 21:53:00,
2013-01-16 13:58:00,43.2,15.3,30.89,WNW,291,2.0,4.0,32,0.00,,,0.00,meteohub,2013-01-16 21:58:00,
2013-01-16 14:03:00,43.0,17.2,30.89,NNE,30,1.0,4.0,35,0.00,,,0.00,meteohub,2013-01-16 22:03:00,
2013-01-16 14:08:00,43.0,17.8,30.89,NE,38,4.0,4.0,36,0.00,,,0.00,meteohub,2013-01-16 22:08:00,
2013-01-16 14:13:00,43.0,17.2,30.89,NE,38,0.0,5.0,35,0.00,,,0.00,meteohub,2013-01-16 22:13:00,
2013-01-16 14:18:00,42.6,16.9,30.89,NE,37,0.0,5.0,35,0.00,,,0.00,meteohub,2013-01-16 22:18:00,
2013-01-16 14:23:00,42.4,18.7,30.88,NE,38,0.0,5.0,38,0.00,,,0.00,meteohub,2013-01-16 22:23:00,
2013-01-16 14:28:00,42.4,20.5,30.88,NNE,15,2.0,2.0,41,0.00,,,0.00,meteohub,2013-01-16 22:28:00,
2013-01-16 14:33:00,42.4,21.0,30.88,NE,35,4.0,4.0,42,0.00,,,0.00,meteohub,2013-01-16 22:33:00,
2013-01-16 14:38:00,42.3,17.2,30.88,NE,40,2.0,5.0,36,0.00,,,0.00,meteohub,2013-01-16 22:38:00,
2013-01-16 14:43:00,42.3,21.9,30.88,NE,44,2.0,5.0,44,0.00,,,0.00,meteohub,2013-01-16 22:43:00,
2013-01-16 14:49:00,42.3,15.3,30.88,NNW,329,1.0,5.0,33,0.00,,,0.00,meteohub,2013-01-16 22:49:00,
2013-01-16 14:54:00,42.4,19.2,30.88,NE,34,0.0,3.0,39,0.00,,,0.00,meteohub,2013-01-16 22:54:00,
2013-01-16 14:59:00,42.4,19.2,30.88,NNE,33,6.0,6.0,39,0.00,,,0.00,meteohub,2013-01-16 22:59:00,
2013-01-16 15:04:00,42.1,20.1,30.89,NW,322,4.0,6.0,41,0.00,,,0.00,meteohub,2013-01-16 23:04:00,
2013-01-16 15:09:00,41.7,18.5,30.88,NE,37,0.0,8.0,39,0.00,,,0.00,meteohub,2013-01-16 23:09:00,
2013-01-16 15:14:00,41.5,19.6,30.88,NNE,32,5.0,8.0,41,0.00,,,0.00,meteohub,2013-01-16 23:14:00,
2013-01-16 15:19:00,41.9,21.0,30.89,NE,44,6.0,8.0,43,0.00,,,0.00,meteohub,2013-01-16 23:19:00,
2013-01-16 15:24:00,41.9,19.9,30.89,NE,46,5.0,7.0,41,0.00,,,0.00,meteohub,2013-01-16 23:24:00,
2013-01-16 15:29:00,41.5,21.2,30.89,ENE,66,1.0,12.0,44,0.00,,,0.00,meteohub,2013-01-16 23:29:00,
2013-01-16 15:34:00,41.4,23.7,30.89,ENE,67,8.0,12.0,49,0.00,,,0.00,meteohub,2013-01-16 23:34:00,
2013-01-16 15:39:00,41.2,20.8,30.89,NE,55,8.0,12.0,44,0.00,,,0.00,meteohub,2013-01-16 23:39:00,
2013-01-16 15:44:00,41.2,20.3,30.89,NE,43,9.0,11.0,43,0.00,,,0.00,meteohub,2013-01-16 23:44:00,
2013-01-16 15:49:00,40.6,21.6,30.89,ENE,69,4.0,12.0,46,0.00,,,0.00,meteohub,2013-01-16 23:49:00,
2013-01-16 15:54:00,40.6,18.9,30.90,ENE,67,7.0,13.0,41,0.00,,,0.00,meteohub,2013-01-16 23:54:00,
2013-01-16 15:59:00,40.5,17.4,30.90,East,87,2.0,13.0,39,0.00,,,0.00,meteohub,2013-01-16 23:59:00,
2013-01-16 16:04:00,40.1,18.3,30.89,ENE,74,1.0,15.0,41,0.00,,,0.00,meteohub,2013-01-17 00:04:00,
2013-01-16 16:09:00,39.9,16.3,30.89,ENE,63,3.0,15.0,38,0.00,,,0.00,meteohub,2013-01-17 00:09:00,
2013-01-16 16:14:00,39.6,17.2,30.89,ENE,76,1.0,15.0,40,0.00,,,0.00,meteohub,2013-01-17 00:14:00,
2013-01-16 16:19:00,39.4,15.3,30.90,East,96,0.0,15.0,37,0.00,,,0.00,meteohub,2013-01-17 00:19:00,
2013-01-16 16:24:00,39.0,14.4,30.90,East,96,0.0,4.0,36,0.00,,,0.00,meteohub,2013-01-17 00:24:00,
2013-01-16 16:29:00,38.7,14.5,30.90,East,96,0.0,3.0,37,0.00,,,0.00,meteohub,2013-01-17 00:29:00,
2013-01-16 16:34:00,38.5,16.3,30.90,South,187,0.0,2.0,40,0.00,,,0.00,meteohub,2013-01-17 00:34:00,
2013-01-16 16:39:00,38.1,14.2,30.90,South,185,0.0,1.0,37,0.00,,,0.00,meteohub,2013-01-17 00:39:00,
2013-01-16 16:44:00,38.1,12.9,30.90,SE,125,0.0,3.0,35,0.00,,,0.00,meteohub,2013-01-17 00:44:00,
2013-01-16 16:49:00,37.6,14.2,30.91,South,169,1.0,3.0,38,0.00,,,0.00,meteohub,2013-01-17 00:49:00,
2013-01-16 16:55:00,36.7,17.4,30.91,SSE,157,0.0,2.0,45,0.00,,,0.00,meteohub,2013-01-17 00:55:00,
2013-01-16 17:00:00,35.8,16.5,30.91,South,176,1.0,2.0,45,0.00,,,0.00,meteohub,2013-01-17 01:00:00,
2013-01-16 17:05:00,35.4,17.6,30.91,SE,144,0.0,2.0,48,0.00,,,0.00,meteohub,2013-01-17 01:05:00,
2013-01-16 17:10:00,34.9,18.1,30.91,SSE,152,1.0,1.0,50,0.00,,,0.00,meteohub,2013-01-17 01:10:00,
2013-01-16 17:15:00,34.3,19.0,30.91,ESE,121,0.0,2.0,53,0.00,,,0.00,meteohub,2013-01-17 01:15:00,
2013-01-16 17:20:00,34.0,18.7,30.91,SSE,165,0.0,2.0,53,0.00,,,0.00,meteohub,2013-01-17 01:20:00,
2013-01-16 17:25:00,33.4,19.4,30.91,SSE,163,0.0,2.0,56,0.00,,,0.00,meteohub,2013-01-17 01:25:00,
2013-01-16 17:30:00,32.9,17.6,30.91,SSE,156,1.0,1.0,53,0.00,,,0.00,meteohub,2013-01-17 01:30:00,
2013-01-16 17:35:00,32.5,17.8,30.91,SSE,157,2.0,2.0,54,0.00,,,0.00,meteohub,2013-01-17 01:35:00,
2013-01-16 17:40:00,32.0,17.6,30.91,SSE,153,1.0,2.0,55,0.00,,,0.00,meteohub,2013-01-17 01:40:00,
2013-01-16 17:45:00,31.5,18.3,30.91,South,180,1.0,2.0,58,0.00,,,0.00,meteohub,2013-01-17 01:45:00,
2013-01-16 17:50:00,30.9,17.4,30.92,SSE,154,1.0,2.0,57,0.00,,,0.00,meteohub,2013-01-17 01:50:00,
2013-01-16 17:55:00,30.4,17.8,30.92,SE,141,1.0,2.0,59,0.00,,,0.00,meteohub,2013-01-17 01:55:00,
2013-01-16 18:00:00,29.8,17.2,30.92,SSE,164,2.0,2.0,59,0.00,,,0.00,meteohub,2013-01-17 02:00:00,
2013-01-16 18:05:00,29.3,16.7,30.92,SSE,156,2.0,2.0,59,0.00,,,0.00,meteohub,2013-01-17 02:05:00,
2013-01-16 18:10:00,28.9,16.3,30.92,SSE,155,1.0,3.0,59,0.00,,,0.00,meteohub,2013-01-17 02:10:00,
2013-01-16 18:15:00,28.6,16.5,30.92,SSE,165,1.0,3.0,60,0.00,,,0.00,meteohub,2013-01-17 02:15:00,
2013-01-16 18:20:00,28.0,16.7,30.93,SSE,155,2.0,3.0,62,0.00,,,0.00,meteohub,2013-01-17 02:20:00,
2013-01-16 18:25:00,27.5,16.5,30.93,ESE,118,1.0,3.0,63,0.00,,,0.00,meteohub,2013-01-17 02:25:00,
2013-01-16 18:30:00,27.1,16.5,30.93,South,184,0.0,3.0,64,0.00,,,0.00,meteohub,2013-01-17 02:30:00,
2013-01-16 18:35:00,26.8,16.9,30.93,SSW,195,1.0,3.0,66,0.00,,,0.00,meteohub,2013-01-17 02:35:00,
2013-01-16 18:40:00,26.4,16.9,30.93,SSE,157,2.0,3.0,67,0.00,,,0.00,meteohub,2013-01-17 02:40:00,
2013-01-16 18:45:00,26.2,16.7,30.93,SSE,167,1.0,3.0,67,0.00,,,0.00,meteohub,2013-01-17 02:45:00,
2013-01-16 18:50:00,25.9,16.7,30.94,SSE,154,2.0,3.0,68,0.00,,,0.00,meteohub,2013-01-17 02:50:00,
2013-01-16 18:56:00,25.7,16.5,30.94,SSE,155,1.0,3.0,68,0.00,,,0.00,meteohub,2013-01-17 02:56:00,
2013-01-16 19:01:00,25.5,16.2,30.94,SSE,158,2.0,3.0,67,0.00,,,0.00,meteohub,2013-01-17 03:01:00,
2013-01-16 19:06:00,25.5,15.8,30.94,SSE,161,3.0,3.0,66,0.00,,,0.00,meteohub,2013-01-17 03:06:00,
2013-01-16 19:11:00,25.9,16.2,30.94,SSE,165,4.0,4.0,66,0.00,,,0.00,meteohub,2013-01-17 03:11:00,
2013-01-16 19:16:00,25.9,16.2,30.94,SSE,163,3.0,4.0,66,0.00,,,0.00,meteohub,2013-01-17 03:16:00,
2013-01-16 19:21:00,25.7,15.6,30.94,SSE,164,3.0,4.0,65,0.00,,,0.00,meteohub,2013-01-17 03:21:00,
2013-01-16 19:26:00,25.7,14.5,30.94,SSE,153,2.0,4.0,62,0.00,,,0.00,meteohub,2013-01-17 03:26:00,
2013-01-16 19:31:00,25.9,15.1,30.94,SSE,156,3.0,4.0,63,0.00,,,0.00,meteohub,2013-01-17 03:31:00,
2013-01-16 19:36:00,25.7,15.6,30.94,SSE,164,3.0,4.0,65,0.00,,,0.00,meteohub,2013-01-17 03:36:00,
2013-01-16 19:41:00,25.5,15.1,30.94,SSE,168,3.0,4.0,64,0.00,,,0.00,meteohub,2013-01-17 03:41:00,
2013-01-16 19:46:00,25.5,15.8,30.94,SSE,167,3.0,4.0,66,0.00,,,0.00,meteohub,2013-01-17 03:46:00,
2013-01-16 19:51:00,25.2,15.1,30.94,SSE,153,2.0,3.0,65,0.00,,,0.00,meteohub,2013-01-17 03:51:00,
2013-01-16 19:56:00,25.0,14.9,30.94,SSE,161,2.0,3.0,65,0.00,,,0.00,meteohub,2013-01-17 03:56:00,
2013-01-16 20:01:00,24.8,15.1,30.94,SSE,155,2.0,3.0,66,0.00,,,0.00,meteohub,2013-01-17 04:01:00,
2013-01-16 20:06:00,24.6,14.9,30.94,South,172,3.0,3.0,66,0.00,,,0.00,meteohub,2013-01-17 04:06:00,
2013-01-16 20:11:00,24.6,14.5,30.94,SSE,162,2.0,3.0,65,0.00,,,0.00,meteohub,2013-01-17 04:11:00,
2013-01-16 20:16:00,24.6,14.5,30.94,SSE,166,3.0,3.0,65,0.00,,,0.00,meteohub,2013-01-17 04:16:00,
2013-01-16 20:21:00,24.6,14.9,30.94,South,171,3.0,3.0,66,0.00,,,0.00,meteohub,2013-01-17 04:21:00,
2013-01-16 20:26:00,24.6,14.9,30.94,South,169,3.0,4.0,66,0.00,,,0.00,meteohub,2013-01-17 04:26:00,
2013-01-16 20:31:00,24.6,15.3,30.94,SSE,165,2.0,4.0,67,0.00,,,0.00,meteohub,2013-01-17 04:31:00,
2013-01-16 20:36:00,24.4,15.1,30.94,SSE,155,2.0,4.0,67,0.00,,,0.00,meteohub,2013-01-17 04:36:00,
2013-01-16 20:41:00,24.3,14.9,30.94,SSE,163,2.0,3.0,67,0.00,,,0.00,meteohub,2013-01-17 04:41:00,
2013-01-16 20:47:00,24.1,15.1,30.95,South,171,3.0,4.0,68,0.00,,,0.00,meteohub,2013-01-17 04:47:00,
2013-01-16 20:52:00,24.1,15.4,30.94,South,173,3.0,4.0,69,0.00,,,0.00,meteohub,2013-01-17 04:52:00,
2013-01-16 20:57:00,23.9,15.3,30.95,SSE,153,3.0,4.0,69,0.00,,,0.00,meteohub,2013-01-17 04:57:00,
2013-01-16 21:00:00,23.7,15.1,30.95,South,176,3.0,4.0,69,0.00,,,0.00,meteohub,2013-01-17 05:00:00,
2013-01-16 21:02:00,23.7,15.1,30.95,SSE,155,2.0,4.0,69,0.00,,,0.00,meteohub,2013-01-17 05:02:00,
2013-01-16 21:07:00,23.5,14.2,30.95,SSE,149,3.0,4.0,67,0.00,,,0.00,meteohub,2013-01-17 05:07:00,
2013-01-16 21:12:00,23.2,14.2,30.95,SSE,153,2.0,4.0,68,0.00,,,0.00,meteohub,2013-01-17 05:12:00,
2013-01-16 21:17:00,23.2,14.2,30.95,SSE,157,3.0,3.0,68,0.00,,,0.00,meteohub,2013-01-17 05:17:00,
2013-01-16 21:22:00,23.0,14.0,30.95,SSE,155,2.0,3.0,68,0.00,,,0.00,meteohub,2013-01-17 05:22:00,
2013-01-16 21:27:00,22.8,13.8,30.95,SSE,161,2.0,3.0,68,0.00,,,0.00,meteohub,2013-01-17 05:27:00,
2013-01-16 21:32:00,22.6,14.0,30.95,SSE,167,2.0,3.0,69,0.00,,,0.00,meteohub,2013-01-17 05:32:00,
2013-01-16 21:37:00,22.5,14.2,30.95,South,173,2.0,3.0,70,0.00,,,0.00,meteohub,2013-01-17 05:37:00,
2013-01-16 21:42:00,22.5,14.5,30.95,SSE,168,2.0,3.0,71,0.00,,,0.00,meteohub,2013-01-17 05:42:00,
2013-01-16 21:47:00,22.3,14.7,30.95,South,169,3.0,3.0,72,0.00,,,0.00,meteohub,2013-01-17 05:47:00,
2013-01-16 21:52:00,22.1,14.5,30.95,SSE,167,3.0,4.0,72,0.00,,,0.00,meteohub,2013-01-17 05:52:00,
2013-01-16 21:57:00,22.3,14.4,30.95,South,176,3.0,4.0,71,0.00,,,0.00,meteohub,2013-01-17 05:57:00,
2013-01-16 22:02:00,22.5,13.8,30.95,SSE,157,2.0,4.0,69,0.00,,,0.00,meteohub,2013-01-17 06:02:00,
2013-01-16 22:07:00,22.6,13.6,30.95,SSE,164,2.0,4.0,68,0.00,,,0.00,meteohub,2013-01-17 06:07:00,
2013-01-16 22:12:00,22.6,13.6,30.95,SSE,161,3.0,4.0,68,0.00,,,0.00,meteohub,2013-01-17 06:12:00,
2013-01-16 22:17:00,22.5,13.1,30.95,SSE,163,2.0,3.0,67,0.00,,,0.00,meteohub,2013-01-17 06:17:00,
2013-01-16 22:22:00,22.3,13.3,30.95,SSE,160,3.0,4.0,68,0.00,,,0.00,meteohub,2013-01-17 06:22:00,
2013-01-16 22:27:00,22.1,13.1,30.95,SSE,160,2.0,4.0,68,0.00,,,0.00,meteohub,2013-01-17 06:27:00,
2013-01-16 22:32:00,21.9,13.3,30.95,SSE,156,3.0,4.0,69,0.00,,,0.00,meteohub,2013-01-17 06:32:00,
2013-01-16 22:37:00,21.6,12.9,30.95,SSE,157,3.0,4.0,69,0.00,,,0.00,meteohub,2013-01-17 06:37:00,
2013-01-16 22:42:00,21.0,12.7,30.95,SSE,152,2.0,4.0,70,0.00,,,0.00,meteohub,2013-01-17 06:42:00,
2013-01-16 22:47:00,20.7,12.4,30.95,SSE,155,2.0,3.0,70,0.00,,,0.00,meteohub,2013-01-17 06:47:00,
2013-01-16 22:52:00,20.1,12.6,30.95,South,171,2.0,3.0,72,0.00,,,0.00,meteohub,2013-01-17 06:52:00,
2013-01-16 22:57:00,20.1,12.9,30.95,South,169,4.0,4.0,73,0.00,,,0.00,meteohub,2013-01-17 06:57:00,
2013-01-16 23:02:00,20.5,12.6,30.95,SSE,167,3.0,4.0,71,0.00,,,0.00,meteohub,2013-01-17 07:02:00,
2013-01-16 23:07:00,20.8,12.6,30.95,SSE,161,3.0,4.0,70,0.00,,,0.00,meteohub,2013-01-17 07:07:00,
2013-01-16 23:12:00,21.0,12.4,30.95,South,171,3.0,4.0,69,0.00,,,0.00,meteohub,2013-01-17 07:12:00,
2013-01-16 23:17:00,20.8,12.6,30.95,SSE,159,4.0,4.0,70,0.00,,,0.00,meteohub,2013-01-17 07:17:00,
2013-01-16 23:22:00,20.7,12.7,30.95,SSE,165,4.0,4.0,71,0.00,,,0.00,meteohub,2013-01-17 07:22:00,
2013-01-16 23:27:00,20.5,12.6,30.95,SSE,150,3.0,5.0,71,0.00,,,0.00,meteohub,2013-01-17 07:27:00,
2013-01-16 23:32:00,19.9,12.4,30.94,SSE,150,3.0,5.0,72,0.00,,,0.00,meteohub,2013-01-17 07:32:00,
2013-01-16 23:37:00,19.8,12.6,30.94,SSE,165,3.0,5.0,73,0.00,,,0.00,meteohub,2013-01-17 07:37:00,
2013-01-16 23:42:00,19.4,12.2,30.94,SSE,162,4.0,4.0,73,0.00,,,0.00,meteohub,2013-01-17 07:42:00,
2013-01-16 23:47:00,19.6,12.0,30.94,SSE,165,3.0,4.0,72,0.00,,,0.00,meteohub,2013-01-17 07:47:00,
2013-01-16 23:52:00,19.2,12.0,30.95,SSE,160,3.0,4.0,73,0.00,,,0.00,meteohub,2013-01-17 07:52:00,
2013-01-16 23:57:00,19.6,12.0,30.94,SSE,165,3.0,4.0,72,0.00,,,0.00,meteohub,2013-01-17 07:57:00,